Torna al catalogo

KAZSAT 1

AttivoComunicazioniGEO
NORAD 29230·PAYLOAD·🇰🇿 Kazakhstan

Lanciato Jun 17, 2006 da Baikonur Cosmodrome

Loading…

TLE

AggiornatoSource: Space-Track

Epoca: Sep 14, 2026, 16:47 UTC

1 29230U 06022A   26257.69967994 -.00000301  00000-0  00000-0 0  9992
2 29230  12.0210  35.2237 0006104 193.7451 169.6741  0.99237274 73532

Traccia KAZSAT 1 in tempo reale con AllMySat

Download on the App Store